Flag for Kazakhstan Weather past 2 weeks in Aqtobe, Kazakhstan

Now
25 °F

Partly sunny.


Feels Like: 12 °F
Forecast: 17 / 23 °F
Wind: 15 mph from West

Location: Aktjubinsk

Current Time: Oct 24, 2014 at 3:28:02 PM

Latest Report: Oct 24, 2014 at 2:30 PM


Visibility: N/A

Pressure: 29.98 "Hg

Humidity: 50%

Dew point: 9 °F

Location of AqtobeLocation

Historic Weather in Aqtobe — Graph

°F

Aqtobe temperature yesterday

Maximum temperature yesterday: 48 °F (at 1:00 AM)
Minimum temperature yesterday: 25 °F (at 10:30 PM)
Average temperature yesterday: 34 °F

Past Weeks' High & Low Weather Summary

 TemperatureHumidityPressure
High70 °F (Oct 16, 3:00 PM)100% (Oct 10, 1:30 AM)30.57 "Hg (Oct 10, 1:30 AM)
Low19 °F (Oct 24, 10:00 AM)22% (Oct 14, 12:30 PM)29.50 "Hg (Oct 18, 2:00 PM)
Average45 °F70%29.97 "Hg
* Reported Oct 9 2:00 PM — Oct 24 2:30 PM, Aqtobe, Weather by CustomWeather, © 2014

Note: Actual official high and low records may vary slightly from our data, if they occured in-between our weather recording intervals... More about our weather records

Advertising

Aqtobe weather history for previous 24 hours

 ConditionsComfort  
Time TempWeatherWind HumidityBarometerVisibility
2:30 PM
Oct 24
25 °FPartly sunny.15 mph50%29.98 "HgN/A
2:00 PM23 °FPartly sunny.15 mph50%29.98 "HgN/A
1:30 PM23 °FPartly sunny.15 mph54%29.98 "HgN/A
1:00 PM21 °FPartly sunny.15 mph58%29.98 "HgN/A
12:30 PM21 °FPartly sunny.15 mph58%29.98 "HgN/A
12:00 PM23 °FPartly sunny.15 mph58%29.98 "HgN/A
11:30 AM21 °FSnow flurries. Broken clouds.15 mph58%29.98 "HgN/A
11:00 AM21 °FSnow flurries. Broken clouds.13 mph68%29.98 "Hg6 mi
10:30 AM19 °FSnow flurries. Broken clouds.13 mph79%29.98 "Hg6 mi
10:00 AM19 °FSnow showers. Broken clouds.10 mph79%29.98 "Hg2 mi
9:30 AM21 °FSnow flurries. Broken clouds.13 mph80%29.98 "Hg5 mi
9:00 AM21 °FLight snow. Overcast.17 mph74%29.98 "HgN/A
8:30 AM21 °FLight snow. Partly sunny.15 mph74%29.95 "HgN/A
7:30 AM21 °FLight snow. Overcast.15 mph74%29.95 "HgN/A
7:00 AM23 °FOvercast.13 mph63%29.95 "HgN/A
6:30 AM23 °FOvercast.10 mph58%29.95 "HgN/A
6:00 AM23 °FOvercast.15 mph58%29.95 "HgN/A
5:30 AM23 °FOvercast.15 mph58%29.95 "HgN/A
5:00 AM23 °FLight snow. Overcast.13 mph63%29.95 "HgN/A
4:30 AM23 °FLight snow. Overcast.13 mph68%29.95 "HgN/A
4:00 AM23 °FOvercast.13 mph63%29.95 "HgN/A
3:30 AM25 °FOvercast.15 mph59%29.95 "HgN/A
3:00 AM25 °FOvercast.15 mph63%29.95 "HgN/A
2:30 AM25 °FOvercast.15 mph63%29.95 "HgN/A
2:00 AM25 °FOvercast.13 mph63%29.95 "HgN/A
1:30 AM25 °FOvercast.15 mph63%29.95 "HgN/A
1:00 AM23 °FOvercast.10 mph74%29.95 "HgN/A
12:30 AM23 °FOvercast.15 mph74%29.95 "HgN/A
12:00 AM25 °FOvercast.13 mph69%29.95 "HgN/A
11:30 PM
Oct 23
25 °FOvercast.17 mph69%29.95 "HgN/A
11:00 PM25 °FOvercast.13 mph74%29.95 "HgN/A
10:30 PM25 °FOvercast.15 mph69%29.95 "HgN/A
10:00 PM27 °FOvercast.17 mph69%29.95 "HgN/A
9:30 PM27 °FOvercast.13 mph69%29.95 "HgN/A
9:00 PM27 °FOvercast.15 mph74%29.95 "HgN/A
8:30 PM27 °FOvercast.13 mph74%29.92 "HgN/A
8:00 PM27 °FOvercast.15 mph74%29.92 "HgN/A
7:30 PM27 °FOvercast.15 mph74%29.92 "HgN/A
7:00 PM27 °FOvercast.15 mph74%29.92 "HgN/A
6:30 PM27 °FOvercast.15 mph74%29.92 "HgN/A
6:00 PM27 °FOvercast.13 mph80%29.92 "HgN/A
5:30 PM27 °FOvercast.17 mph80%29.92 "HgN/A
5:00 PM28 °FOvercast.15 mph74%29.92 "HgN/A
4:30 PM30 °FPartly sunny.17 mph75%29.89 "HgN/A
4:00 PM30 °FPartly sunny.13 mph75%29.89 "HgN/A
3:30 PM32 °FPartly sunny.17 mph64%29.89 "HgN/A
3:00 PM32 °FPartly sunny.15 mph64%29.89 "HgN/A
Weather by CustomWeather, © 2014

See weather overviewHow to use our weather pages